Time,TemperatureF,DewpointF,PressureIn,WindDirection,WindDirectionDegrees,WindSpeedMPH,WindSpeedGustMPH,Humidity,HourlyPrecipIn,Conditions,Clouds,dailyrainin,SoftwareType,DateUTC
2013-07-16 00:01:00,72.0,70.0,30.40,WSW,242,0.0,-999.0,92,-99.99,,,-99.99,,2013-07-16 04:01:00,
2013-07-16 00:12:00,72.0,70.0,30.40,WSW,242,0.0,-999.0,92,-99.99,,,-99.99,,2013-07-16 04:12:00,
2013-07-16 00:22:00,72.0,70.0,30.40,WSW,242,0.0,-999.0,92,-99.99,,,-99.99,,2013-07-16 04:22:00,
2013-07-16 00:32:00,72.0,70.0,30.40,WSW,242,0.0,-999.0,93,-99.99,,,-99.99,,2013-07-16 04:32:00,
2013-07-16 00:53:00,71.0,69.0,30.40,WSW,242,0.0,-999.0,93,-99.99,,,-99.99,,2013-07-16 04:53:00,
2013-07-16 01:01:00,71.0,69.0,30.40,WSW,242,0.0,-999.0,93,-99.99,,,-99.99,,2013-07-16 05:01:00,
2013-07-16 01:22:00,71.0,69.0,30.40,WSW,242,0.0,-999.0,93,-99.99,,,-99.99,,2013-07-16 05:22:00,
2013-07-16 01:32:00,71.0,69.0,30.41,WSW,242,0.0,-999.0,93,-99.99,,,-99.99,,2013-07-16 05:32:00,
2013-07-16 01:43:00,70.0,68.0,30.41,WSW,242,0.0,-999.0,93,-99.99,,,-99.99,,2013-07-16 05:43:00,
2013-07-16 01:52:00,70.0,68.0,30.40,WSW,242,0.0,-999.0,94,-99.99,,,-99.99,,2013-07-16 05:52:00,
2013-07-16 02:01:00,70.0,68.0,30.40,WSW,242,0.0,-999.0,94,-99.99,,,-99.99,,2013-07-16 06:01:00,
2013-07-16 02:11:00,70.0,68.0,30.40,WSW,242,0.0,-999.0,94,-99.99,,,-99.99,,2013-07-16 06:11:00,
2013-07-16 02:22:00,70.0,68.0,30.40,WSW,242,0.0,-999.0,94,-99.99,,,-99.99,,2013-07-16 06:22:00,
2013-07-16 02:43:00,69.0,67.0,30.40,WSW,242,0.0,-999.0,94,-99.99,,,-99.99,,2013-07-16 06:43:00,
2013-07-16 02:52:00,69.0,67.0,30.40,WSW,242,0.0,-999.0,94,-99.99,,,-99.99,,2013-07-16 06:52:00,
2013-07-16 03:01:00,69.0,67.0,30.40,WSW,242,0.0,-999.0,94,-99.99,,,-99.99,,2013-07-16 07:01:00,
2013-07-16 03:11:00,69.0,67.0,30.40,WSW,242,0.0,-999.0,94,-99.99,,,-99.99,,2013-07-16 07:11:00,
2013-07-16 03:22:00,69.0,67.0,30.40,WSW,242,0.0,-999.0,94,-99.99,,,-99.99,,2013-07-16 07:22:00,
2013-07-16 03:32:00,69.0,67.0,30.40,WSW,242,0.0,-999.0,94,-99.99,,,-99.99,,2013-07-16 07:32:00,
2013-07-16 03:43:00,69.0,67.0,30.40,WSW,242,0.0,-999.0,94,-99.99,,,-99.99,,2013-07-16 07:43:00,
2013-07-16 03:52:00,69.0,67.0,30.40,WSW,242,0.0,-999.0,94,-99.99,,,-99.99,,2013-07-16 07:52:00,
2013-07-16 04:01:00,69.0,67.0,30.40,WSW,242,0.0,-999.0,94,-99.99,,,-99.99,,2013-07-16 08:01:00,
2013-07-16 04:11:00,68.0,66.0,30.40,WSW,242,0.0,-999.0,94,-99.99,,,-99.99,,2013-07-16 08:11:00,
2013-07-16 04:22:00,68.0,66.0,30.40,WSW,242,0.0,-999.0,94,-99.99,,,-99.99,,2013-07-16 08:22:00,
2013-07-16 04:32:00,68.0,66.0,30.39,WSW,242,0.0,-999.0,94,-99.99,,,-99.99,,2013-07-16 08:32:00,
2013-07-16 04:43:00,68.0,66.0,30.39,WSW,242,0.0,-999.0,94,-99.99,,,-99.99,,2013-07-16 08:43:00,
2013-07-16 04:52:00,68.0,66.0,30.39,WSW,242,0.0,-999.0,94,-99.99,,,-99.99,,2013-07-16 08:52:00,
2013-07-16 05:01:00,68.0,67.0,30.39,WSW,242,0.0,-999.0,95,-99.99,,,-99.99,,2013-07-16 09:01:00,
2013-07-16 05:12:00,68.0,67.0,30.39,WSW,242,0.0,-999.0,95,-99.99,,,-99.99,,2013-07-16 09:12:00,
2013-07-16 05:22:00,68.0,67.0,30.40,WSW,242,0.0,-999.0,95,-99.99,,,-99.99,,2013-07-16 09:22:00,
2013-07-16 05:32:00,67.0,66.0,30.39,WSW,242,0.0,-999.0,95,-99.99,,,-99.99,,2013-07-16 09:32:00,
2013-07-16 05:42:00,67.0,66.0,30.40,WSW,242,0.0,-999.0,95,-99.99,,,-99.99,,2013-07-16 09:42:00,
2013-07-16 05:52:00,67.0,66.0,30.40,WSW,242,0.0,-999.0,95,-99.99,,,-99.99,,2013-07-16 09:52:00,
2013-07-16 06:43:00,67.0,66.0,30.40,WSW,242,0.0,-999.0,95,-99.99,,,-99.99,,2013-07-16 10:43:00,
2013-07-16 06:52:00,67.0,66.0,30.40,WSW,242,0.0,-999.0,95,-99.99,,,-99.99,,2013-07-16 10:52:00,
2013-07-16 07:01:00,67.0,66.0,30.40,WSW,242,0.0,-999.0,95,-99.99,,,-99.99,,2013-07-16 11:01:00,
2013-07-16 07:52:00,67.0,66.0,30.42,WSW,242,0.0,-999.0,95,-99.99,,,-99.99,,2013-07-16 11:52:00,
2013-07-16 08:01:00,68.0,67.0,30.42,WSW,241,0.0,-999.0,96,-99.99,,,-99.99,,2013-07-16 12:01:00,
2013-07-16 08:53:00,72.0,71.0,30.42,WSW,241,0.0,-999.0,96,-99.99,,,-99.99,,2013-07-16 12:53:00,
2013-07-16 09:11:00,74.0,72.0,30.42,WSW,241,0.0,-999.0,95,-99.99,,,-99.99,,2013-07-16 13:11:00,
2013-07-16 09:22:00,76.0,74.0,30.42,WSW,241,0.0,-999.0,93,-99.99,,,-99.99,,2013-07-16 13:22:00,
2013-07-16 09:32:00,77.0,74.0,30.42,WSW,241,0.0,-999.0,90,-99.99,,,-99.99,,2013-07-16 13:32:00,
2013-07-16 09:52:00,80.0,75.0,30.42,WSW,241,0.0,-999.0,84,-99.99,,,-99.99,,2013-07-16 13:52:00,
2013-07-16 10:02:00,80.0,74.0,30.42,WSW,242,0.0,-999.0,82,-99.99,,,-99.99,,2013-07-16 14:02:00,
2013-07-16 10:21:00,82.0,74.0,30.42,NE,45,0.0,-999.0,78,-99.99,,,-99.99,,2013-07-16 14:21:00,
2013-07-16 10:32:00,82.0,74.0,30.42,NE,45,0.0,-999.0,78,-99.99,,,-99.99,,2013-07-16 14:32:00,
2013-07-16 10:43:00,83.0,75.0,30.42,ENE,57,0.0,-999.0,76,-99.99,,,-99.99,,2013-07-16 14:43:00,
2013-07-16 10:52:00,84.0,75.0,30.42,WSW,257,0.0,-999.0,74,-99.99,,,-99.99,,2013-07-16 14:52:00,
2013-07-16 11:11:00,86.0,75.0,30.42,SW,221,0.0,-999.0,70,-99.99,,,-99.99,,2013-07-16 15:11:00,
2013-07-16 11:22:00,86.0,75.0,30.42,NNE,20,0.0,-999.0,69,-99.99,,,-99.99,,2013-07-16 15:22:00,
2013-07-16 11:32:00,87.0,76.0,30.41,West,274,0.0,-999.0,69,-99.99,,,-99.99,,2013-07-16 15:32:00,
2013-07-16 11:43:00,87.0,76.0,30.41,West,274,0.0,-999.0,69,-99.99,,,-99.99,,2013-07-16 15:43:00,
2013-07-16 11:53:00,87.0,76.0,30.41,West,274,0.0,-999.0,69,-99.99,,,-99.99,,2013-07-16 15:53:00,
2013-07-16 12:01:00,87.0,76.0,30.41,West,274,0.0,-999.0,69,-99.99,,,-99.99,,2013-07-16 16:01:00,
2013-07-16 12:11:00,87.0,76.0,30.41,West,274,0.0,-999.0,69,-99.99,,,-99.99,,2013-07-16 16:11:00,